Yatton Keynell, United Kingdom

5:12 PM GMT on March 25, 2019 (GMT +0000)
Yatton Keynell

Weather History for 03740 - May, 2007

Change the Weather History Date:

Wednesday, May 30, 2007

  Actual Average Record
Temperature  
Mean Temperature 50 °F -  
Max Temperature 57 °F 65 °F - ()
Min Temperature 43 °F 49 °F - ()
Degree Days  
Heating Degree Days 15    
Moisture  
Dew Point 46 °F    
Average Humidity 84    
Maximum Humidity 100    
Minimum Humidity 56    
Precipitation  
Precipitation 0.08 in 0.07 in - ()
Sea Level Pressure  
Sea Level Pressure 29.64 in    
Wind  
Wind Speed 8 mph ()    
Max Wind Speed 16 mph    
Max Gust Speed -    
Visibility 8.0 miles    
Events Rain    
T = Trace of Precipitation, MM = Missing Value Source: Averaged Metar Reports

Daily Weather History Graph

Daily Weather History Graph

Search for Another Location

Airport or City:

Astronomy

May. 30, 2007 Rise Set
Actual Time 4:58 AM BST 9:12 PM BST
Civil Twilight 4:13 AM BST 9:58 PM BST
Nautical Twilight 3:08 AM BST 11:04 PM BST
Astronomical Twilight 1:37 AM BST 12:33 AM BST
Moon 8:15 PM BST (5/30) 3:32 AM BST (5/30)
Length of Visible Light 17h 44m
Length of Day
16h 14m
Waxing Gibbous, 98% of the Moon is Illuminated
May 30
Waxing Gibbous
Jun 1
Full
Jun 8
Last Quarter
Jun 15
New
Jun 22
First Quarter

Hourly Weather History & Observations

Time (BST) Temp. Windchill Dew Point Humidity Pressure Visibility Wind Dir Wind Speed Gust Speed Precip Events Conditions
12:50 AM 44 °F - 35 °F 61% 29.81 in 22 mi SSW 5.8 mph - -   Scattered Clouds
12:50 AM 44.6 °F 41.4 °F 35.6 °F 71% 29.80 in - SSW 5.8 mph - N/A   Clear
1:50 AM 44.6 °F 40.7 °F 35.6 °F 71% 29.77 in - South 6.9 mph - N/A   Clear
2:50 AM 42.8 °F 41.1 °F 37.4 °F 81% 29.74 in - SSE 3.5 mph - N/A   Clear
3:50 AM 44 °F - 38 °F 72% 29.75 in 19 mi ESE 4.6 mph - -   Mostly Cloudy
3:50 AM 42.8 °F 40.1 °F 37.4 °F 81% 29.74 in - ESE 4.6 mph - N/A   Clear
4:50 AM 44.6 °F 40.7 °F 42.8 °F 93% 29.71 in 6.2 mi SE 6.9 mph - N/A   Mostly Cloudy
5:50 AM 46.4 °F 41.9 °F 42.8 °F 87% 29.68 in 6.2 mi SE 9.2 mph - N/A Rain Light Rain
6:50 AM 46 °F - 44 °F 90% 29.68 in 12 mi ESE 10.4 mph - - Rain Light Rain
6:50 AM 46.4 °F 41.5 °F 44.6 °F 93% 29.65 in 6.2 mi ESE 10.4 mph - N/A Rain Light Rain
7:50 AM 46.4 °F 41.1 °F 46.4 °F 100% 29.62 in 6.2 mi ESE 11.5 mph - N/A Rain Rain
8:50 AM 48.2 °F - 46.4 °F 93% 29.59 in 6.2 mi ESE 11.5 mph - N/A Rain Light Rain
9:50 AM 50 °F - 49 °F 95% 29.59 in 7 mi ESE 12.7 mph - - Rain Light Rain
9:50 AM 50.0 °F - 50.0 °F 100% 29.56 in 6.2 mi ESE 12.7 mph - N/A Rain Light Rain
10:50 AM 53.6 °F - 51.8 °F 94% 29.53 in 6.2 mi SSE 16.1 mph - N/A   Light Drizzle
11:50 AM 53.6 °F - 51.8 °F 94% 29.53 in 6.2 mi SSE 13.8 mph - N/A Rain Rain
12:50 PM 55 °F - 54 °F 93% 29.55 in 16 mi South 10.4 mph - - Rain Rain
12:50 PM 55.4 °F - 53.6 °F 94% 29.53 in 6.2 mi South 10.4 mph - N/A Rain Rain
1:50 PM 55.4 °F - 55.4 °F 100% 29.53 in 6.2 mi SSW 9.2 mph - N/A   Mostly Cloudy
2:50 PM 59.0 °F - 55.4 °F 88% 29.53 in 6.2 mi South 8.1 mph - N/A   Scattered Clouds
3:50 PM 62 °F - 50 °F 56% 29.55 in 16 mi South 12.7 mph - -   Mostly Cloudy
3:50 PM 62.6 °F - 50.0 °F 63% 29.53 in 6.2 mi South 12.7 mph - N/A   Scattered Clouds
5:50 PM 59.0 °F - 48.2 °F 67% 29.59 in 6.2 mi West 16.1 mph - N/A   Scattered Clouds
6:50 PM 56 °F - 48 °F 68% 29.62 in 25 mi WSW 9.2 mph - -   Partly Cloudy
6:50 PM 55.4 °F - 48.2 °F 77% 29.62 in 6.2 mi WSW 9.2 mph - N/A   Scattered Clouds
7:50 PM 55.4 °F - 48.2 °F 77% 29.62 in 6.2 mi SSW 5.8 mph - N/A   Scattered Clouds
8:50 PM 53.6 °F - 46.4 °F 77% 29.65 in 6.2 mi SSW 8.1 mph - N/A   Scattered Clouds
9:50 PM 51.8 °F - 48.2 °F 88% 29.65 in 6.2 mi South 4.6 mph - N/A   Partly Cloudy
10:50 PM 50.0 °F - 48.2 °F 94% 29.68 in - South 5.8 mph - N/A   Clear
11:50 PM 50.0 °F - 48.2 °F 94% 29.68 in - South 8.1 mph - N/A   Clear